Simultaneous Nadir Overpasses (SNOs) Predictions

Prediction of SNOs between GOES-14 and NPP Satellite Orbit:

Table of predicted SNOs for the next 14.0 days since TLE Epoch: 10/1/2022
Index Date Time (GOES-14) GOES-14 Lat,Lon NPP Lat,Lon Distance(km) Time Diff (sec)
1 10/02/2022 08:40:05 0.27,-104.39 1.09,-108.12 425.14 80
2 10/03/2022 08:18:39 0.29,-104.37 0.14,-103.58 89.28 80
3 10/05/2022 20:21:52 -0.26,-104.35 -0.26,-104.36 1.62 80
4 10/08/2022 08:27:36 0.25,-104.37 0.39,-105.10 83.24 80
5 10/09/2022 08:06:10 0.26,-104.35 -0.57,-100.56 431.91 80
6 10/10/2022 20:28:07 -0.23,-104.32 -0.61,-105.86 177.07 80
7 10/11/2022 20:12:02 -0.25,-104.33 0.41,-101.33 340.91 80
8 10/13/2022 08:33:51 0.22,-104.39 0.74,-106.61 253.74 80
9 10/14/2022 08:12:26 0.24,-104.37 -0.29,-102.08 261.37 80
